Left ArrowRight Arrow

38.83388, -104.82136

Hourly Observations for November 8, 2020

Temp ( °F °C ) Dew Point ( °F °C ) Humidity (%) Winds ( mph kmh ) Pressure ( in mb ) Visibility ( mi km ) Precip ( " mm )
12:58 am 00:58 Mostly Cloudy 51 10.3 33 0.5 51 51 SSE 20 31 28.98 981 10 16 0.00 0.00
12:59 am 00:59 Mostly Cloudy 52 11 34 1 50 50 SSE 18 30 28.97 981 10 16 0.00 0.00
1:58 am 01:58 Mostly Cloudy 50 9.9 37 2.6 61 61 S 21 33 28.92 980 10 16 0.00 0.00
2:58 am 02:58 Mostly Cloudy 48 9.1 35 1.9 61 61 SSE 22 35 28.91 979 10 16 0.00 0.00
3:18 am 03:18 Mostly Cloudy 45 7 39 4 81 81 SSE 16 26 28.92 980 10 16 0.00 0.00
3:48 am 03:48 Mostly Cloudy 46 8 37 3 71 71 SSE 23 37 28.91 979 10 16 0.00 0.00
3:59 am 03:59 Mostly Cloudy 47 8.5 37 2.6 67 67 SSE 23 37 28.91 979 10 16 0.01 0.25
4:14 am 04:14 Mostly Cloudy 46 8 34 1 62 62 SSE 25 41 28.93 980 10 16 0.00 0.00
4:47 am 04:47 Mostly Cloudy 45 7 28 -2 53 53 SSE 32 52 28.96 981 10 16 0.00 0.00
4:58 am 04:58 Partly Cloudy 45 7.3 26 -3.2 48 48 SSE 30 48 28.93 980 10 16 0.00 0.00
5:58 am 05:58 Clear 44 6.8 17 -8.6 33 33 SSE 40 65 28.89 978 10 16 0.00 0.00
6:03 am 06:03 Clear 45 7 16 -9 31 31 SSE 37 59 28.88 978 10 16 0.00 0.00
6:58 am 06:58 Sunny 43 5.9 8 -13.3 24 24 SE 36 57 28.95 981 10 16 0.00 0.00
7:09 am 07:09 Sunny 45 7 5 -15 19 19 ESE 14 22 29.02 983 10 16 0.00 0.00
7:10 am 07:10 Sunny 45 7 5 -15 19 19 NNE 13 20 29.02 983 10 16 0.00 0.00
7:19 am 07:19 Sunny 43 6 5 -15 21 21 ESE 17 28 29.04 983 10 16 0.00 0.00
7:39 am 07:39 Sunny 43 6 9 -13 24 24 ESE 21 33 29.10 985 10 16 0.00 0.00
7:58 am 07:58 Sunny 43 6.1 12 -11.3 28 28 SSE 17 28 29.13 986 10 16 0.00 0.00
8:27 am 08:27 Sunny 43 6 10 -12 26 26 SE 18 30 29.10 985 10 16 0.00 0.00
8:39 am 08:39 Sunny 43 6 10 -12 26 26 ESE 16 26 29.14 987 10 16 0.00 0.00
8:42 am 08:42 Sunny 43 6 10 -12 26 26 SSE 23 37 29.13 986 10 16 0.00 0.00
8:58 am 08:58 Sunny 44 6.8 11 -11.4 26 26 ESE 13 20 29.13 986 10 16 0.00 0.00
9:12 am 09:12 Sunny 45 7 9 -13 23 23 ESE 13 20 29.18 988 10 16 0.00 0.00
9:58 am 09:58 Sunny 45 7.3 12 -11.2 26 26 E 5 7 29.19 989 10 16 0.00 0.00
10:06 am 10:06 Sunny 46 8 12 -11 25 25 SE 14 22 29.20 989 10 16 0.00 0.00
10:14 am 10:14 Sunny 46 8 9 -13 21 21 SSE 15 24 29.20 989 10 16 0.00 0.00
10:23 am 10:23 Sunny 48 9 9 -13 20 20 SE 21 33 29.20 989 10 16 0.00 0.00
10:58 am 10:58 Sunny 48 9 6 -14.6 17 17 SSE 12 19 29.22 990 10 16 0.00 0.00
11:25 am 11:25 Sunny 50 10 5 -15 16 16 S 15 24 29.21 989 10 16 0.00 0.00
11:58 am 11:58 Sunny 51 10.3 3 -16 14 14 SE 10 17 29.22 990 10 16 0.00 0.00
12:58 pm 12:58 Sunny 49 9.2 8 -13.6 19 19 SSE 21 33 29.19 989 10 16 0.00 0.00
1:58 pm 13:58 Sunny 48 9 8 -13.6 19 19 S 23 37 29.20 989 10 16 0.00 0.00
2:58 pm 14:58 Sunny 47 8.4 8 -13.1 20 20 SE 16 26 29.23 990 10 16 0.00 0.00
3:58 pm 15:58 Sunny 45 7.4 12 -11.3 25 25 SSE 18 30 29.26 991 10 16 0.00 0.00
4:58 pm 16:58 Clear 44 6.5 12 -11.2 27 27 SSE 13 20 29.30 992 10 16 0.00 0.00
5:58 pm 17:58 Clear 44 6.9 11 -11.7 25 25 S 13 20 29.31 993 10 16 0.00 0.00
6:58 pm 18:58 Partly Cloudy 45 7.3 15 -9.2 30 30 S 13 20 29.30 992 10 16 0.00 0.00
7:58 pm 19:58 Mostly Cloudy 47 8.1 19 -7.2 33 33 SSE 10 17 29.27 991 10 16 0.00 0.00
8:43 pm 20:43 Mostly Cloudy 46 8 23 -5 40 40 SSE 17 28 29.26 991 10 16 0.00 0.00
8:49 pm 20:49 Mostly Cloudy 46 8 25 -4 43 43 SSE 16 26 29.26 991 10 16 0.00 0.00
8:58 pm 20:58 Mostly Cloudy 47 8.2 24 -4.6 40 40 SE 20 31 29.25 991 10 16 0.00 0.00
9:10 pm 21:10 Mostly Cloudy 43 6 18 -8 36 36 SSE 14 22 29.27 991 10 16 0.00 0.00
9:12 pm 21:12 Mostly Cloudy 43 6 16 -9 34 34 E 15 24 29.28 991 10 16 0.00 0.00
9:58 pm 21:58 Mostly Cloudy 41 4.8 15 -9.7 34 34 NW 5 7 29.30 992 10 16 0.00 0.00
10:58 pm 22:58 Partly Cloudy 43 6 22 -5.5 44 44 SE 12 19 29.26 991 10 16 0.00 0.00
11:57 pm 23:57 Mostly Cloudy 46 8 19 -7 34 34 S 18 30 29.23 990 10 16 0.00 0.00
11:58 pm 23:58 Mostly Cloudy 46 7.5 19 -7.1 35 35 S 18 30 29.22 990 10 16 0.00 0.00

Powered by Vaisala Xweather